Location: Centerville
(32.8776°N, 96.6203°W)
Time: 09:44:16
(UTC+00:00)

Cosmos 2237 - Pass Details

Date: 23 October 2021
Orbit: 845 x 856 km, 70.8° (Epoch: 08 December)

Event Time Altitude Azimuth Distance (km) Brightness Sun altitude
Rises 02:17:37 0° 240° (WSW) 3,406 8.0 -32.7°
Reaches altitude 10° 02:20:49 10° 259° (WSW) 2,476 7.4 -33.4°
Maximum altitude 02:24:42 19° 302° (WNW) 1,941 6.6 -34.2°
Drops below altitude 10° 02:28:37 10° 346° (NNW) 2,488 6.8 -35.0°
Enters shadow 02:31:30 - 2° (N) 3,308 7.4 -35.6°
